Location: Peebles
(55.6412°N, 3.1714°W)
Time: 21:41:24
(UTC+00:00)

FENGYUN 1C DEB - Pass Details

Date: 12 February 2023
Orbit: 707 x 862 km, 98.5° (Epoch: 07 November)

Event Time Altitude Azimuth Distance (km) Brightness Sun altitude
Rises 21:20:55 0° 222° (SW) 3,406 ? -34.8°
Reaches altitude 10° 21:24:34 10° 247° (WSW) 2,477 ? -35.3°
Maximum altitude 21:27:21 14° 278° (W) 2,205 ? -35.6°
Drops below altitude 10° 21:30:09 10° 309° (NW) 2,472 ? -35.9°
Sets 21:33:49 0° 334° (NNW) 3,395 ? -36.4°
